Regional Weather Roundup
Issued by NWS

Home | Current Version | Previous Version | Graphics & Text | Print | Product List | Glossary On
Versions: 1 2 3 4 5 6 7 8 9 10 11 12 13 14 15 16 17 18 19 20 21 22 23 24 25 26 27 28 29 30 31 32 33 34 35 36 37 38 39 40 41 42 43 44 45 46 47
000
ASUS45 KTFX 280410
RWRMT
MONTANA REGIONAL WEATHER ROUNDUP
NATIONAL WEATHER SERVICE GREAT FALLS MT
1000 PM MDT MON JUL 27 2015

NOTE: "FAIR" INDICATES FEW OR NO CLOUDS BELOW 12000 FEET WITH NO
SIGNIFICANT WEATHER AND/OR OBSTRUCTIONS TO VISIBILITY.

MTZ001>007-043-280500-
WEST OF THE DIVIDE

CITY           SKY/WX    TMP DP  RH WIND       PRES   REMARKS
KALISPELL      CLOUDY    55  47  74 S10       30.07R
MISSOULA       LGT RAIN  52  46  80 NE7       30.15R
BUTTE          LGT RAIN  47  40  76 NW3       30.16R
MULLAN PASS    CLOUDY    43  36  76 N13G23    30.19R
DEER LODGE       N/A     50  43  76 E3        30.17R
EUREKA           N/A     54  46  76 SE3       30.08R
HAMILTON         N/A     50  45  81 W6        30.16R
LIBBY            N/A     54  48  82 E7        30.10R
PLAINS           N/A     57  45  64 CALM      30.11R
$$

MTZ008-052>055-280500-
SOUTHWEST MONTANA

CITY           SKY/WX    TMP DP  RH WIND       PRES   REMARKS
BOZEMAN        LGT RAIN  50  46  86 CALM      30.12R
DILLON         CLOUDY    45  40  82 S13       30.17R
W YELLOWSTONE  CLOUDY    39  37  93 SW8       30.20R
TWIN BRIDGES     N/A     47  39  73 NE5       30.13R
$$

MTZ009-010-012-014-046-048-049-054-280500-
EAST SLOPES AND CENTRAL MONTANA

CITY           SKY/WX    TMP DP  RH WIND       PRES   REMARKS
CUT BANK       CLOUDY    53  46  77 NW20G25   29.98S
GREAT FALLS    LGT RAIN  51  49  92 SW13      29.99R
MALMSTROM AFB  LGT RAIN  51  49  91 SW16      29.99R
HELENA         CLOUDY    53  43  68 W13G21    30.07R
CONRAD           N/A     54  52  93 SW9       30.00S
$$

MTZ011-013-016-021-045-047-050-051-280500-
NORTH CENTRAL MONTANA

CITY           SKY/WX    TMP DP  RH WIND       PRES   REMARKS
HAVRE          CLOUDY    56  53  90 W14       29.84F
LEWISTOWN      LGT RAIN  51  47  86 W17       29.97R
CHINOOK          N/A     57  54  88 W13G20    29.83R
FORT BENTON      N/A     54  52  94 SW12      29.96R
$$

MTZ017>020-022>027-061-062-280500-
NORTHEAST MONTANA

CITY           SKY/WX    TMP DP  RH WIND       PRES   REMARKS
GLASGOW        RAIN      58  54  86 W20       29.73R
JORDAN           N/A     56  54  93 W20G26    29.78R
SIDNEY         CLOUDY    66  59  77 SW16G22   29.63R
WOLF POINT     LGT RAIN  65  59  81 W21G37    29.64R
MALTA            N/A     57  52  84 SW6       29.75R
PLENTYWOOD       N/A     70  57  64 SW14G22   29.56S
POPLAR           N/A     63  61  94 S20G36    29.65  VSB 1/2
SCOBEY           N/A     62  58  87 W16       29.62R
$$

MTZ028>42-056>058-280500-
SOUTHCENTRAL AND SOUTHEAST MONTANA

CITY           SKY/WX    TMP DP  RH WIND       PRES   REMARKS
BAKER          CLOUDY    60  54  80 NW17G24   29.80R
BILLINGS       MOCLDY    55  47  74 W12       29.96R
LIVINGSTON     CLOUDY    51  42  71 W20G26    30.07R
MILES CITY     CLOUDY    58  58 100 NW14G24   29.79S
EKALAKA          N/A     56  52  86 W9        29.83R
FORSYTH          N/A     55  54  94 W20G29    29.85R
LAUREL           N/A     54  45  71 SW9       29.96R
ROUNDUP          N/A     55  43  64 NW6       29.85R
$$

REGIONAL REPORTS...DAKOTAS

CITY           SKY/WX    TMP DP  RH WIND       PRES   REMARKS
WILLISTON      LGT RAIN  68  64  87 S9        29.61R
MINOT          CLOUDY    82  69  64 SE17G24   29.59S
DICKINSON      CLOUDY    74  56  53 SW30G54   29.73R
BEACH          LGT RAIN  59  57  94 NW15G23   29.75S
CROSBY         FAIR      68  64  88 S15G25    29.53S
BISMARCK       LGT RAIN  77  62  59 SW24G51   29.69S
GRAND FORKS    MOCLDY    77  71  82 SE10      29.74S
FARGO          CLEAR     79  71  76 SE14G23   29.77R
BUFFALO SD       N/A     61  53  75 NW31G40   29.71R
RAPID CITY     MOCLDY    65  62  90 W3        29.71R
$$

REGIONAL REPORTS...WYOMING/IDAHO/WASHINGTON

CITY           SKY/WX    TMP DP  RH WIND       PRES   REMARKS
GILLETTE       CLEAR     54  47  77 NW15G23   29.94R
SHERIDAN       CLEAR     55  46  71 W18       29.94R
BUFFALO WY     CLEAR     52  45  77 NW10      29.96R
CODY           PTCLDY    55  36  47 W12G18    30.02R
YELLOWSTONE LA   N/A     36  33  89 MISG      30.23R
IDAHO FALLS    CLOUDY    52  44  74 E6        30.20R
SALMON         CLOUDY    50  39  66 SW6       30.20R
BOISE          CLEAR     67  32  27 N9        30.12R
SPOKANE        MOCLDY    66  39  37 SW3       30.08R
$$

REGIONAL REPORTS...ALBERTA

CITY           SKY/WX    TMP DP  RH WIND       PRES   REMARKS
EDMONTON       PTCLDY    61  46  59 W5        29.93F
CALGARY        PTCLDY    57  45  62 NW5       30.02S
LETHBRIDGE     MOCLDY    57  48  72 NW16      29.98R
MEDICINE HAT   CLOUDY    59  55  88 NW12G18   29.85F
CARDSTON         N/A     54  45  71 W6          N/A
$$

REGIONAL REPORTS...SASKATCHEWAN

CITY           SKY/WX    TMP DP  RH WIND       PRES   REMARKS
SWIFT CURRENT  RAIN      59 N/A N/A N21       29.75S
REGINA         TSTM      63  57  82 NE17G26   29.60R
SASKATOON      LGT RAIN  61  59  94 N12G17    29.83S
CYPRESS HILLS    N/A     50  48  93 N12G20      N/A
VAL MARIE        N/A     57  54  88 N23G29      N/A
ROCKGLEN         N/A     57  55  94 NW15G24     N/A
ASSINIBOIA       N/A     57  52  82 SW3         N/A
$$



USA.gov is the U.S. government's official web portal to all federal, state and local government web resources and services.